Multibeam Report for HLY1202


Ship Name: Healy
Chief Scientist: Mayer, Larry
University of New Hampshire, Center for Coastal and Ocean Mapping (UNH/CCOM)
Source Organization: University of New Hampshire, Center for Coastal and Ocean Mapping (UNH/CCOM)
Start Date: 2012-08-26
End Date: 2012-09-24


View ISO Metadata

Visit the full NCEI Bathymetry Viewer


Multibeam Bathymetry

Cruise Details

Project: U.S. Extended Continental Shelf (ECS) Survey
Instrument: Kongsberg EM122

Data Quality

Number of Files: 705
Number of Records: 574833
BATHYMETRY DATA Quantity Percentage
Number of Beams 235585872 100%
Number of Good Beams 204328379 86.73%
Number of Zero Beams 0 0%
Number of Flagged Beams 31257493 13.27%

Navigation Totals

Total Time: 671.2264 hours
Total Track Length: 10178.3815 km
Average Speed: 15.164 km/hr (8.1879 knots)

Cruise Bounds

Northern Extent: 83.506325
Southern Extent: 71.04527
Western Extent: -175.99588
Eastern Extent: -154.67644

Limits

Minimum Sonar Depth 7.2008 Maximum Sonar Depth 9.8936
Minimum Altitude 18.5539 Maximum Altitude 4441.5376
Minimum Depth 23.5178 Maximum Depth 4938.0845

File Information

Full Resolution Bathymetry as collected (raw): 698

Files File Size Description
0000_20120826_050718_Healy.all.mb58.gz 52.42MB Kongsberg multibeam vendor format
0000_20120827_164645_Healy.all.mb58.gz 2.68MB Kongsberg multibeam vendor format
0001_20120826_060718_Healy.all.mb58.gz 26.22MB Kongsberg multibeam vendor format
0001_20120827_170400_Healy.all.mb58.gz 12.33MB Kongsberg multibeam vendor format
0002_20120826_224159_Healy.all.mb58.gz 132.67MB Kongsberg multibeam vendor format
0002_20120827_180148_Healy.all.mb58.gz 6.53MB Kongsberg multibeam vendor format
0003_20120826_234157_Healy.all.mb58.gz 132.82MB Kongsberg multibeam vendor format
0003_20120827_181801_Healy.all.mb58.gz 17.59MB Kongsberg multibeam vendor format
0004_20120827_004157_Healy.all.mb58.gz 192.93MB Kongsberg multibeam vendor format
0004_20120827_191803_Healy.all.mb58.gz 1.15MB Kongsberg multibeam vendor format
0005_20120827_014157_Healy.all.mb58.gz 176.33MB Kongsberg multibeam vendor format
0005_20120827_192213_Healy.all.mb58.gz 8.47MB Kongsberg multibeam vendor format
0006_20120827_024157_Healy.all.mb58.gz 123.89MB Kongsberg multibeam vendor format
0006_20120827_201801_Healy.all.mb58.gz 1.38MB Kongsberg multibeam vendor format
0007_20120827_034157_Healy.all.mb58.gz 82.71MB Kongsberg multibeam vendor format
0007_20120827_202612_Healy.all.mb58.gz 5.83MB Kongsberg multibeam vendor format
0008_20120827_044157_Healy.all.mb58.gz 46.00MB Kongsberg multibeam vendor format
0008_20120827_212259_Healy.all.mb58.gz 2.13MB Kongsberg multibeam vendor format
0009_20120827_054201_Healy.all.mb58.gz 13.40MB Kongsberg multibeam vendor format
0009_20120827_213724_Healy.all.mb58.gz 8.04MB Kongsberg multibeam vendor format
0010_20120827_061105_Healy.all.mb58.gz 19.05MB Kongsberg multibeam vendor format
0010_20120827_223728_Healy.all.mb58.gz 0.96MB Kongsberg multibeam vendor format
0011_20120827_071107_Healy.all.mb58.gz 15.06MB Kongsberg multibeam vendor format
0012_20120827_081106_Healy.all.mb58.gz 13.92MB Kongsberg multibeam vendor format
0018_20120827_090730_Healy.all.mb58.gz 4.68MB Kongsberg multibeam vendor format
0019_20120827_092539_Healy.all.mb58.gz 282.7KB Kongsberg multibeam vendor format
0020_20120827_093738_Healy.all.mb58.gz 5.15MB Kongsberg multibeam vendor format
0021_20120827_095728_Healy.all.mb58.gz 15.80MB Kongsberg multibeam vendor format
0022_20120827_105715_Healy.all.mb58.gz 15.94MB Kongsberg multibeam vendor format
0023_20120827_115723_Healy.all.mb58.gz 11.12MB Kongsberg multibeam vendor format
0024_20120827_125718_Healy.all.mb58.gz 8.17MB Kongsberg multibeam vendor format
0025_20120827_135719_Healy.all.mb58.gz 1.95MB Kongsberg multibeam vendor format
0026_20120827_224549_Healy.all.mb58.gz 41.01MB Kongsberg multibeam vendor format
0027_20120827_234547_Healy.all.mb58.gz 48.10MB Kongsberg multibeam vendor format
0028_20120828_004543_Healy.all.mb58.gz 13.38MB Kongsberg multibeam vendor format
0029_20120828_010242_Healy.all.mb58.gz 40.14MB Kongsberg multibeam vendor format
0030_20120828_020234_Healy.all.mb58.gz 32.52MB Kongsberg multibeam vendor format
0031_20120828_030236_Healy.all.mb58.gz 32.36MB Kongsberg multibeam vendor format
0032_20120828_040234_Healy.all.mb58.gz 38.08MB Kongsberg multibeam vendor format
0033_20120828_050232_Healy.all.mb58.gz 50.64MB Kongsberg multibeam vendor format
0034_20120828_060233_Healy.all.mb58.gz 50.29MB Kongsberg multibeam vendor format
0035_20120828_070233_Healy.all.mb58.gz 49.38MB Kongsberg multibeam vendor format
0036_20120828_080234_Healy.all.mb58.gz 56.30MB Kongsberg multibeam vendor format
0037_20120828_090231_Healy.all.mb58.gz 41.90MB Kongsberg multibeam vendor format
0038_20120828_100236_Healy.all.mb58.gz 33.74MB Kongsberg multibeam vendor format
0039_20120828_110231_Healy.all.mb58.gz 29.95MB Kongsberg multibeam vendor format
0040_20120828_120232_Healy.all.mb58.gz 30.77MB Kongsberg multibeam vendor format
0041_20120828_130231_Healy.all.mb58.gz 32.10MB Kongsberg multibeam vendor format
0042_20120828_140234_Healy.all.mb58.gz 28.80MB Kongsberg multibeam vendor format
0043_20120828_150231_Healy.all.mb58.gz 20.64MB Kongsberg multibeam vendor format
0044_20120828_160235_Healy.all.mb58.gz 25.16MB Kongsberg multibeam vendor format
0045_20120828_170232_Healy.all.mb58.gz 20.80MB Kongsberg multibeam vendor format
0046_20120828_180231_Healy.all.mb58.gz 46.18MB Kongsberg multibeam vendor format
0047_20120828_190232_Healy.all.mb58.gz 48.55MB Kongsberg multibeam vendor format
0048_20120828_200233_Healy.all.mb58.gz 35.05MB Kongsberg multibeam vendor format
0049_20120828_210236_Healy.all.mb58.gz 16.33MB Kongsberg multibeam vendor format
0050_20120828_220240_Healy.all.mb58.gz 15.34MB Kongsberg multibeam vendor format
0051_20120828_230233_Healy.all.mb58.gz 14.69MB Kongsberg multibeam vendor format
0052_20120829_000232_Healy.all.mb58.gz 14.34MB Kongsberg multibeam vendor format
0053_20120829_010240_Healy.all.mb58.gz 14.63MB Kongsberg multibeam vendor format
0054_20120829_020232_Healy.all.mb58.gz 14.84MB Kongsberg multibeam vendor format
0055_20120829_030232_Healy.all.mb58.gz 14.10MB Kongsberg multibeam vendor format
0056_20120829_040232_Healy.all.mb58.gz 14.43MB Kongsberg multibeam vendor format
0057_20120829_050236_Healy.all.mb58.gz 13.67MB Kongsberg multibeam vendor format
0058_20120829_060237_Healy.all.mb58.gz 14.21MB Kongsberg multibeam vendor format
0059_20120829_070237_Healy.all.mb58.gz 13.98MB Kongsberg multibeam vendor format
0060_20120829_080234_Healy.all.mb58.gz 14.35MB Kongsberg multibeam vendor format
0061_20120829_090237_Healy.all.mb58.gz 13.74MB Kongsberg multibeam vendor format
0062_20120829_100237_Healy.all.mb58.gz 14.07MB Kongsberg multibeam vendor format
0063_20120829_110239_Healy.all.mb58.gz 10.36MB Kongsberg multibeam vendor format
0064_20120829_120240_Healy.all.mb58.gz 8.49MB Kongsberg multibeam vendor format
0065_20120829_130236_Healy.all.mb58.gz 7.25MB Kongsberg multibeam vendor format
0066_20120829_140233_Healy.all.mb58.gz 8.02MB Kongsberg multibeam vendor format
0067_20120829_150232_Healy.all.mb58.gz 8.65MB Kongsberg multibeam vendor format
0068_20120829_160236_Healy.all.mb58.gz 8.80MB Kongsberg multibeam vendor format
0069_20120829_170232_Healy.all.mb58.gz 7.65MB Kongsberg multibeam vendor format
0070_20120829_180233_Healy.all.mb58.gz 8.63MB Kongsberg multibeam vendor format
0071_20120829_190236_Healy.all.mb58.gz 7.90MB Kongsberg multibeam vendor format
0072_20120829_200236_Healy.all.mb58.gz 7.82MB Kongsberg multibeam vendor format
0073_20120829_210236_Healy.all.mb58.gz 8.22MB Kongsberg multibeam vendor format
0074_20120829_220237_Healy.all.mb58.gz 8.01MB Kongsberg multibeam vendor format
0075_20120829_230235_Healy.all.mb58.gz 6.79MB Kongsberg multibeam vendor format
0076_20120830_000235_Healy.all.mb58.gz 6.57MB Kongsberg multibeam vendor format
0077_20120830_010237_Healy.all.mb58.gz 8.01MB Kongsberg multibeam vendor format
0078_20120830_020233_Healy.all.mb58.gz 7.90MB Kongsberg multibeam vendor format
0079_20120830_030232_Healy.all.mb58.gz 8.44MB Kongsberg multibeam vendor format
0080_20120830_040234_Healy.all.mb58.gz 7.06MB Kongsberg multibeam vendor format
0081_20120830_050238_Healy.all.mb58.gz 7.20MB Kongsberg multibeam vendor format
0082_20120830_060237_Healy.all.mb58.gz 6.91MB Kongsberg multibeam vendor format
0083_20120830_070235_Healy.all.mb58.gz 7.27MB Kongsberg multibeam vendor format
0084_20120830_080230_Healy.all.mb58.gz 7.92MB Kongsberg multibeam vendor format
0085_20120830_090233_Healy.all.mb58.gz 7.78MB Kongsberg multibeam vendor format
0086_20120830_100234_Healy.all.mb58.gz 7.19MB Kongsberg multibeam vendor format
0087_20120830_110235_Healy.all.mb58.gz 8.23MB Kongsberg multibeam vendor format
0088_20120830_120239_Healy.all.mb58.gz 10.99MB Kongsberg multibeam vendor format
0089_20120830_130238_Healy.all.mb58.gz 10.91MB Kongsberg multibeam vendor format
0090_20120830_140232_Healy.all.mb58.gz 18.59MB Kongsberg multibeam vendor format
0091_20120830_150230_Healy.all.mb58.gz 17.19MB Kongsberg multibeam vendor format
0092_20120830_160232_Healy.all.mb58.gz 16.09MB Kongsberg multibeam vendor format
0093_20120830_170235_Healy.all.mb58.gz 16.03MB Kongsberg multibeam vendor format
0094_20120830_180231_Healy.all.mb58.gz 15.45MB Kongsberg multibeam vendor format
0095_20120830_190235_Healy.all.mb58.gz 14.43MB Kongsberg multibeam vendor format
0096_20120830_200229_Healy.all.mb58.gz 15.92MB Kongsberg multibeam vendor format
0097_20120830_210229_Healy.all.mb58.gz 16.36MB Kongsberg multibeam vendor format
0098_20120830_220235_Healy.all.mb58.gz 16.35MB Kongsberg multibeam vendor format
0099_20120830_230229_Healy.all.mb58.gz 15.85MB Kongsberg multibeam vendor format
0100_20120831_000238_Healy.all.mb58.gz 16.38MB Kongsberg multibeam vendor format
0101_20120831_010237_Healy.all.mb58.gz 16.99MB Kongsberg multibeam vendor format
0102_20120831_020235_Healy.all.mb58.gz 16.09MB Kongsberg multibeam vendor format
0103_20120831_030232_Healy.all.mb58.gz 16.25MB Kongsberg multibeam vendor format
0104_20120831_040231_Healy.all.mb58.gz 15.93MB Kongsberg multibeam vendor format
0105_20120831_050230_Healy.all.mb58.gz 15.83MB Kongsberg multibeam vendor format
0106_20120831_060234_Healy.all.mb58.gz 16.05MB Kongsberg multibeam vendor format
0107_20120831_070234_Healy.all.mb58.gz 15.68MB Kongsberg multibeam vendor format
0108_20120831_080235_Healy.all.mb58.gz 15.28MB Kongsberg multibeam vendor format
0109_20120831_090232_Healy.all.mb58.gz 13.92MB Kongsberg multibeam vendor format
0110_20120831_100236_Healy.all.mb58.gz 7.11MB Kongsberg multibeam vendor format
0111_20120831_110231_Healy.all.mb58.gz 7.06MB Kongsberg multibeam vendor format
0112_20120831_120232_Healy.all.mb58.gz 7.14MB Kongsberg multibeam vendor format
0113_20120831_130232_Healy.all.mb58.gz 7.07MB Kongsberg multibeam vendor format
0114_20120831_140231_Healy.all.mb58.gz 7.22MB Kongsberg multibeam vendor format
0115_20120831_150233_Healy.all.mb58.gz 7.14MB Kongsberg multibeam vendor format
0116_20120831_160231_Healy.all.mb58.gz 6.65MB Kongsberg multibeam vendor format
0117_20120831_170231_Healy.all.mb58.gz 7.21MB Kongsberg multibeam vendor format
0118_20120831_180237_Healy.all.mb58.gz 6.99MB Kongsberg multibeam vendor format
0119_20120831_190239_Healy.all.mb58.gz 7.09MB Kongsberg multibeam vendor format
0120_20120831_200231_Healy.all.mb58.gz 11.05MB Kongsberg multibeam vendor format
0121_20120831_210229_Healy.all.mb58.gz 12.39MB Kongsberg multibeam vendor format
0122_20120831_220231_Healy.all.mb58.gz 12.02MB Kongsberg multibeam vendor format
0123_20120831_230230_Healy.all.mb58.gz 13.99MB Kongsberg multibeam vendor format
0124_20120901_000239_Healy.all.mb58.gz 14.18MB Kongsberg multibeam vendor format
0125_20120901_010232_Healy.all.mb58.gz 14.48MB Kongsberg multibeam vendor format
0126_20120901_020238_Healy.all.mb58.gz 13.95MB Kongsberg multibeam vendor format
0127_20120901_030228_Healy.all.mb58.gz 16.26MB Kongsberg multibeam vendor format
0128_20120901_040229_Healy.all.mb58.gz 16.40MB Kongsberg multibeam vendor format
0129_20120901_050238_Healy.all.mb58.gz 16.39MB Kongsberg multibeam vendor format
0130_20120901_060237_Healy.all.mb58.gz 16.26MB Kongsberg multibeam vendor format
0131_20120901_070237_Healy.all.mb58.gz 16.02MB Kongsberg multibeam vendor format
0132_20120901_080233_Healy.all.mb58.gz 16.17MB Kongsberg multibeam vendor format
0133_20120901_090232_Healy.all.mb58.gz 18.43MB Kongsberg multibeam vendor format
0134_20120901_100235_Healy.all.mb58.gz 24.19MB Kongsberg multibeam vendor format
0135_20120901_110229_Healy.all.mb58.gz 25.46MB Kongsberg multibeam vendor format
0136_20120901_120231_Healy.all.mb58.gz 31.17MB Kongsberg multibeam vendor format
0137_20120901_130234_Healy.all.mb58.gz 30.04MB Kongsberg multibeam vendor format
0138_20120901_140231_Healy.all.mb58.gz 24.28MB Kongsberg multibeam vendor format
0139_20120901_150232_Healy.all.mb58.gz 23.33MB Kongsberg multibeam vendor format
0140_20120901_160229_Healy.all.mb58.gz 19.13MB Kongsberg multibeam vendor format
0141_20120901_170229_Healy.all.mb58.gz 14.82MB Kongsberg multibeam vendor format
0142_20120901_180237_Healy.all.mb58.gz 14.45MB Kongsberg multibeam vendor format
0143_20120901_190239_Healy.all.mb58.gz 14.93MB Kongsberg multibeam vendor format
0144_20120901_200237_Healy.all.mb58.gz 15.18MB Kongsberg multibeam vendor format
0145_20120901_210236_Healy.all.mb58.gz 15.45MB Kongsberg multibeam vendor format
0146_20120901_220228_Healy.all.mb58.gz 15.38MB Kongsberg multibeam vendor format
0147_20120901_230235_Healy.all.mb58.gz 15.07MB Kongsberg multibeam vendor format
0148_20120902_000231_Healy.all.mb58.gz 14.75MB Kongsberg multibeam vendor format
0149_20120902_010232_Healy.all.mb58.gz 14.62MB Kongsberg multibeam vendor format
0150_20120902_020233_Healy.all.mb58.gz 15.06MB Kongsberg multibeam vendor format
0151_20120902_030230_Healy.all.mb58.gz 15.67MB Kongsberg multibeam vendor format
0152_20120902_040231_Healy.all.mb58.gz 15.95MB Kongsberg multibeam vendor format
0153_20120902_050233_Healy.all.mb58.gz 7.67MB Kongsberg multibeam vendor format
0154_20120902_060234_Healy.all.mb58.gz 7.02MB Kongsberg multibeam vendor format
0155_20120902_070234_Healy.all.mb58.gz 7.54MB Kongsberg multibeam vendor format
0156_20120902_080236_Healy.all.mb58.gz 7.24MB Kongsberg multibeam vendor format
0157_20120902_090230_Healy.all.mb58.gz 7.02MB Kongsberg multibeam vendor format
0158_20120902_100233_Healy.all.mb58.gz 7.31MB Kongsberg multibeam vendor format
0159_20120902_110234_Healy.all.mb58.gz 7.15MB Kongsberg multibeam vendor format
0160_20120902_120234_Healy.all.mb58.gz 7.07MB Kongsberg multibeam vendor format
0161_20120902_130236_Healy.all.mb58.gz 6.24MB Kongsberg multibeam vendor format
0162_20120902_140236_Healy.all.mb58.gz 5.78MB Kongsberg multibeam vendor format
0163_20120902_150233_Healy.all.mb58.gz 6.61MB Kongsberg multibeam vendor format
0164_20120902_160232_Healy.all.mb58.gz 7.23MB Kongsberg multibeam vendor format
0165_20120902_170241_Healy.all.mb58.gz 7.58MB Kongsberg multibeam vendor format
0166_20120902_180232_Healy.all.mb58.gz 7.40MB Kongsberg multibeam vendor format
0167_20120902_190236_Healy.all.mb58.gz 7.24MB Kongsberg multibeam vendor format
0168_20120902_200234_Healy.all.mb58.gz 7.73MB Kongsberg multibeam vendor format
0169_20120902_210234_Healy.all.mb58.gz 7.68MB Kongsberg multibeam vendor format
0170_20120902_220232_Healy.all.mb58.gz 7.06MB Kongsberg multibeam vendor format
0171_20120902_230238_Healy.all.mb58.gz 7.63MB Kongsberg multibeam vendor format
0172_20120903_000234_Healy.all.mb58.gz 7.62MB Kongsberg multibeam vendor format
0173_20120903_010234_Healy.all.mb58.gz 7.42MB Kongsberg multibeam vendor format
0174_20120903_020232_Healy.all.mb58.gz 7.12MB Kongsberg multibeam vendor format
0175_20120903_030229_Healy.all.mb58.gz 6.91MB Kongsberg multibeam vendor format
0176_20120903_040228_Healy.all.mb58.gz 7.68MB Kongsberg multibeam vendor format
0177_20120903_050230_Healy.all.mb58.gz 7.83MB Kongsberg multibeam vendor format
0178_20120903_060230_Healy.all.mb58.gz 8.21MB Kongsberg multibeam vendor format
0179_20120903_070235_Healy.all.mb58.gz 7.21MB Kongsberg multibeam vendor format
0180_20120903_080228_Healy.all.mb58.gz 7.87MB Kongsberg multibeam vendor format
0181_20120903_090230_Healy.all.mb58.gz 7.67MB Kongsberg multibeam vendor format
0182_20120903_100235_Healy.all.mb58.gz 7.67MB Kongsberg multibeam vendor format
0183_20120903_110230_Healy.all.mb58.gz 7.69MB Kongsberg multibeam vendor format
0184_20120903_120229_Healy.all.mb58.gz 7.44MB Kongsberg multibeam vendor format
0185_20120903_130235_Healy.all.mb58.gz 7.62MB Kongsberg multibeam vendor format
0186_20120903_140236_Healy.all.mb58.gz 7.18MB Kongsberg multibeam vendor format
0187_20120903_150227_Healy.all.mb58.gz 7.18MB Kongsberg multibeam vendor format
0188_20120903_160228_Healy.all.mb58.gz 6.93MB Kongsberg multibeam vendor format
0189_20120903_170227_Healy.all.mb58.gz 7.50MB Kongsberg multibeam vendor format
0190_20120903_180227_Healy.all.mb58.gz 7.32MB Kongsberg multibeam vendor format
0191_20120903_190235_Healy.all.mb58.gz 7.21MB Kongsberg multibeam vendor format
0192_20120903_200228_Healy.all.mb58.gz 5.50MB Kongsberg multibeam vendor format
0193_20120903_210235_Healy.all.mb58.gz 6.39MB Kongsberg multibeam vendor format
0194_20120903_220233_Healy.all.mb58.gz 6.10MB Kongsberg multibeam vendor format
0195_20120903_230232_Healy.all.mb58.gz 6.85MB Kongsberg multibeam vendor format
0196_20120904_000228_Healy.all.mb58.gz 6.62MB Kongsberg multibeam vendor format
0197_20120904_010231_Healy.all.mb58.gz 6.96MB Kongsberg multibeam vendor format
0198_20120904_020236_Healy.all.mb58.gz 6.75MB Kongsberg multibeam vendor format
0199_20120904_030229_Healy.all.mb58.gz 7.02MB Kongsberg multibeam vendor format
0200_20120904_040230_Healy.all.mb58.gz 6.29MB Kongsberg multibeam vendor format
0201_20120904_050228_Healy.all.mb58.gz 6.38MB Kongsberg multibeam vendor format
0202_20120904_060234_Healy.all.mb58.gz 6.12MB Kongsberg multibeam vendor format
0203_20120904_070226_Healy.all.mb58.gz 5.81MB Kongsberg multibeam vendor format
0204_20120904_080232_Healy.all.mb58.gz 5.61MB Kongsberg multibeam vendor format
0205_20120904_090226_Healy.all.mb58.gz 7.34MB Kongsberg multibeam vendor format
0206_20120904_100227_Healy.all.mb58.gz 7.55MB Kongsberg multibeam vendor format
0207_20120904_110234_Healy.all.mb58.gz 7.24MB Kongsberg multibeam vendor format
0208_20120904_120229_Healy.all.mb58.gz 8.05MB Kongsberg multibeam vendor format
0209_20120904_130231_Healy.all.mb58.gz 7.41MB Kongsberg multibeam vendor format
0210_20120904_140234_Healy.all.mb58.gz 7.64MB Kongsberg multibeam vendor format
0211_20120904_150227_Healy.all.mb58.gz 263.1KB Kongsberg multibeam vendor format
0212_20120904_151027_Healy.all.mb58.gz 6.26MB Kongsberg multibeam vendor format
0213_20120904_161019_Healy.all.mb58.gz 8.28MB Kongsberg multibeam vendor format
0214_20120904_171021_Healy.all.mb58.gz 8.05MB Kongsberg multibeam vendor format
0215_20120904_181022_Healy.all.mb58.gz 7.88MB Kongsberg multibeam vendor format
0216_20120904_191022_Healy.all.mb58.gz 6.62MB Kongsberg multibeam vendor format
0217_20120904_201020_Healy.all.mb58.gz 6.15MB Kongsberg multibeam vendor format
0218_20120904_211017_Healy.all.mb58.gz 6.91MB Kongsberg multibeam vendor format
0219_20120904_221022_Healy.all.mb58.gz 7.86MB Kongsberg multibeam vendor format
0220_20120904_231016_Healy.all.mb58.gz 6.58MB Kongsberg multibeam vendor format
0221_20120905_001024_Healy.all.mb58.gz 2.31MB Kongsberg multibeam vendor format
0222_20120905_011022_Healy.all.mb58.gz 3.64MB Kongsberg multibeam vendor format
0223_20120905_021022_Healy.all.mb58.gz 6.04MB Kongsberg multibeam vendor format
0224_20120905_031023_Healy.all.mb58.gz 7.09MB Kongsberg multibeam vendor format
0225_20120905_041021_Healy.all.mb58.gz 6.55MB Kongsberg multibeam vendor format
0226_20120905_051022_Healy.all.mb58.gz 6.94MB Kongsberg multibeam vendor format
0227_20120905_061017_Healy.all.mb58.gz 7.20MB Kongsberg multibeam vendor format
0228_20120905_071020_Healy.all.mb58.gz 6.87MB Kongsberg multibeam vendor format
0229_20120905_081019_Healy.all.mb58.gz 7.38MB Kongsberg multibeam vendor format
0230_20120905_091018_Healy.all.mb58.gz 7.50MB Kongsberg multibeam vendor format
0231_20120905_101025_Healy.all.mb58.gz 7.20MB Kongsberg multibeam vendor format
0232_20120905_111017_Healy.all.mb58.gz 7.34MB Kongsberg multibeam vendor format
0233_20120905_121014_Healy.all.mb58.gz 6.97MB Kongsberg multibeam vendor format
0234_20120905_131020_Healy.all.mb58.gz 7.25MB Kongsberg multibeam vendor format
0235_20120905_141025_Healy.all.mb58.gz 7.23MB Kongsberg multibeam vendor format
0236_20120905_151024_Healy.all.mb58.gz 7.43MB Kongsberg multibeam vendor format
0237_20120905_161014_Healy.all.mb58.gz 7.16MB Kongsberg multibeam vendor format
0238_20120905_171019_Healy.all.mb58.gz 8.02MB Kongsberg multibeam vendor format
0239_20120905_181023_Healy.all.mb58.gz 7.48MB Kongsberg multibeam vendor format
0240_20120905_191022_Healy.all.mb58.gz 7.36MB Kongsberg multibeam vendor format
0241_20120905_201018_Healy.all.mb58.gz 7.61MB Kongsberg multibeam vendor format
0242_20120905_211020_Healy.all.mb58.gz 7.39MB Kongsberg multibeam vendor format
0243_20120905_221022_Healy.all.mb58.gz 7.75MB Kongsberg multibeam vendor format
0244_20120905_231015_Healy.all.mb58.gz 7.69MB Kongsberg multibeam vendor format
0245_20120906_001020_Healy.all.mb58.gz 7.56MB Kongsberg multibeam vendor format
0246_20120906_011016_Healy.all.mb58.gz 7.50MB Kongsberg multibeam vendor format
0247_20120906_021016_Healy.all.mb58.gz 7.63MB Kongsberg multibeam vendor format
0248_20120906_031014_Healy.all.mb58.gz 8.27MB Kongsberg multibeam vendor format
0249_20120906_041017_Healy.all.mb58.gz 7.97MB Kongsberg multibeam vendor format
0250_20120906_051024_Healy.all.mb58.gz 7.71MB Kongsberg multibeam vendor format
0251_20120906_061020_Healy.all.mb58.gz 7.58MB Kongsberg multibeam vendor format
0252_20120906_071016_Healy.all.mb58.gz 7.45MB Kongsberg multibeam vendor format
0253_20120906_081023_Healy.all.mb58.gz 6.66MB Kongsberg multibeam vendor format
0254_20120906_091024_Healy.all.mb58.gz 7.15MB Kongsberg multibeam vendor format
0255_20120906_101023_Healy.all.mb58.gz 7.46MB Kongsberg multibeam vendor format
0256_20120906_111017_Healy.all.mb58.gz 7.35MB Kongsberg multibeam vendor format
0257_20120906_121019_Healy.all.mb58.gz 7.19MB Kongsberg multibeam vendor format
0258_20120906_131019_Healy.all.mb58.gz 7.19MB Kongsberg multibeam vendor format
0259_20120906_141024_Healy.all.mb58.gz 7.08MB Kongsberg multibeam vendor format
0260_20120906_151019_Healy.all.mb58.gz 7.78MB Kongsberg multibeam vendor format
0261_20120906_161015_Healy.all.mb58.gz 7.73MB Kongsberg multibeam vendor format
0262_20120906_171020_Healy.all.mb58.gz 8.06MB Kongsberg multibeam vendor format
0263_20120906_181016_Healy.all.mb58.gz 8.54MB Kongsberg multibeam vendor format
0264_20120906_191022_Healy.all.mb58.gz 8.40MB Kongsberg multibeam vendor format
0265_20120906_201014_Healy.all.mb58.gz 8.64MB Kongsberg multibeam vendor format
0266_20120906_211015_Healy.all.mb58.gz 12.95MB Kongsberg multibeam vendor format
0267_20120906_221022_Healy.all.mb58.gz 16.72MB Kongsberg multibeam vendor format
0268_20120906_231018_Healy.all.mb58.gz 13.13MB Kongsberg multibeam vendor format
0269_20120907_001015_Healy.all.mb58.gz 11.92MB Kongsberg multibeam vendor format
0270_20120907_011021_Healy.all.mb58.gz 17.44MB Kongsberg multibeam vendor format
0271_20120907_021018_Healy.all.mb58.gz 18.75MB Kongsberg multibeam vendor format
0272_20120907_031019_Healy.all.mb58.gz 18.83MB Kongsberg multibeam vendor format
0273_20120907_041014_Healy.all.mb58.gz 23.65MB Kongsberg multibeam vendor format
0274_20120907_051014_Healy.all.mb58.gz 31.32MB Kongsberg multibeam vendor format
0275_20120907_061015_Healy.all.mb58.gz 37.09MB Kongsberg multibeam vendor format
0276_20120907_071017_Healy.all.mb58.gz 36.11MB Kongsberg multibeam vendor format
0277_20120907_081016_Healy.all.mb58.gz 31.28MB Kongsberg multibeam vendor format
0278_20120907_091015_Healy.all.mb58.gz 27.32MB Kongsberg multibeam vendor format
0279_20120907_101014_Healy.all.mb58.gz 17.61MB Kongsberg multibeam vendor format
0280_20120907_111021_Healy.all.mb58.gz 16.63MB Kongsberg multibeam vendor format
0281_20120907_121016_Healy.all.mb58.gz 16.40MB Kongsberg multibeam vendor format
0282_20120907_131013_Healy.all.mb58.gz 14.27MB Kongsberg multibeam vendor format
0283_20120907_141014_Healy.all.mb58.gz 16.32MB Kongsberg multibeam vendor format
0284_20120907_151020_Healy.all.mb58.gz 16.59MB Kongsberg multibeam vendor format
0285_20120907_161013_Healy.all.mb58.gz 17.01MB Kongsberg multibeam vendor format
0286_20120907_171017_Healy.all.mb58.gz 16.68MB Kongsberg multibeam vendor format
0287_20120907_181017_Healy.all.mb58.gz 16.05MB Kongsberg multibeam vendor format
0288_20120907_191021_Healy.all.mb58.gz 15.49MB Kongsberg multibeam vendor format
0289_20120907_201021_Healy.all.mb58.gz 15.44MB Kongsberg multibeam vendor format
0290_20120907_211019_Healy.all.mb58.gz 10.79MB Kongsberg multibeam vendor format
0291_20120907_221017_Healy.all.mb58.gz 7.05MB Kongsberg multibeam vendor format
0292_20120907_231014_Healy.all.mb58.gz 7.00MB Kongsberg multibeam vendor format
0293_20120908_001021_Healy.all.mb58.gz 6.45MB Kongsberg multibeam vendor format
0294_20120908_011022_Healy.all.mb58.gz 6.24MB Kongsberg multibeam vendor format
0295_20120908_021019_Healy.all.mb58.gz 6.52MB Kongsberg multibeam vendor format
0296_20120908_031022_Healy.all.mb58.gz 7.41MB Kongsberg multibeam vendor format
0297_20120908_041022_Healy.all.mb58.gz 7.50MB Kongsberg multibeam vendor format
0298_20120908_051018_Healy.all.mb58.gz 7.44MB Kongsberg multibeam vendor format
0299_20120908_061020_Healy.all.mb58.gz 7.59MB Kongsberg multibeam vendor format
0300_20120908_071022_Healy.all.mb58.gz 11.60MB Kongsberg multibeam vendor format
0301_20120908_081017_Healy.all.mb58.gz 15.66MB Kongsberg multibeam vendor format
0302_20120908_091021_Healy.all.mb58.gz 15.69MB Kongsberg multibeam vendor format
0303_20120908_101015_Healy.all.mb58.gz 16.60MB Kongsberg multibeam vendor format
0304_20120908_111018_Healy.all.mb58.gz 16.37MB Kongsberg multibeam vendor format
0305_20120908_121013_Healy.all.mb58.gz 16.27MB Kongsberg multibeam vendor format
0306_20120908_131019_Healy.all.mb58.gz 16.34MB Kongsberg multibeam vendor format
0307_20120908_141016_Healy.all.mb58.gz 16.03MB Kongsberg multibeam vendor format
0308_20120908_151014_Healy.all.mb58.gz 16.18MB Kongsberg multibeam vendor format
0309_20120908_161020_Healy.all.mb58.gz 16.52MB Kongsberg multibeam vendor format
0310_20120908_171015_Healy.all.mb58.gz 18.36MB Kongsberg multibeam vendor format
0311_20120908_181017_Healy.all.mb58.gz 33.37MB Kongsberg multibeam vendor format
0312_20120908_191015_Healy.all.mb58.gz 47.68MB Kongsberg multibeam vendor format
0313_20120908_201014_Healy.all.mb58.gz 36.61MB Kongsberg multibeam vendor format
0314_20120908_211014_Healy.all.mb58.gz 18.52MB Kongsberg multibeam vendor format
0315_20120908_221012_Healy.all.mb58.gz 16.24MB Kongsberg multibeam vendor format
0316_20120908_231013_Healy.all.mb58.gz 15.66MB Kongsberg multibeam vendor format
0317_20120909_001015_Healy.all.mb58.gz 15.69MB Kongsberg multibeam vendor format
0318_20120909_011019_Healy.all.mb58.gz 16.20MB Kongsberg multibeam vendor format
0319_20120909_021019_Healy.all.mb58.gz 16.30MB Kongsberg multibeam vendor format
0320_20120909_031017_Healy.all.mb58.gz 16.49MB Kongsberg multibeam vendor format
0321_20120909_041015_Healy.all.mb58.gz 15.50MB Kongsberg multibeam vendor format
0322_20120909_051015_Healy.all.mb58.gz 15.24MB Kongsberg multibeam vendor format
0323_20120909_061015_Healy.all.mb58.gz 15.43MB Kongsberg multibeam vendor format
0324_20120909_071017_Healy.all.mb58.gz 15.40MB Kongsberg multibeam vendor format
0325_20120909_081012_Healy.all.mb58.gz 15.15MB Kongsberg multibeam vendor format
0326_20120909_091015_Healy.all.mb58.gz 14.65MB Kongsberg multibeam vendor format
0327_20120909_101013_Healy.all.mb58.gz 6.29MB Kongsberg multibeam vendor format
0328_20120909_111018_Healy.all.mb58.gz 7.07MB Kongsberg multibeam vendor format
0329_20120909_121020_Healy.all.mb58.gz 6.52MB Kongsberg multibeam vendor format
0330_20120909_131021_Healy.all.mb58.gz 7.01MB Kongsberg multibeam vendor format
0331_20120909_141012_Healy.all.mb58.gz 6.55MB Kongsberg multibeam vendor format
0332_20120909_151018_Healy.all.mb58.gz 6.80MB Kongsberg multibeam vendor format
0333_20120909_161017_Healy.all.mb58.gz 7.33MB Kongsberg multibeam vendor format
0334_20120909_171017_Healy.all.mb58.gz 7.39MB Kongsberg multibeam vendor format
0335_20120909_181020_Healy.all.mb58.gz 7.30MB Kongsberg multibeam vendor format
0336_20120909_191012_Healy.all.mb58.gz 7.63MB Kongsberg multibeam vendor format
0337_20120909_201021_Healy.all.mb58.gz 7.59MB Kongsberg multibeam vendor format
0338_20120909_211014_Healy.all.mb58.gz 7.66MB Kongsberg multibeam vendor format
0339_20120909_221019_Healy.all.mb58.gz 7.61MB Kongsberg multibeam vendor format
0340_20120909_231018_Healy.all.mb58.gz 7.57MB Kongsberg multibeam vendor format
0341_20120910_001012_Healy.all.mb58.gz 7.91MB Kongsberg multibeam vendor format
0342_20120910_011018_Healy.all.mb58.gz 7.95MB Kongsberg multibeam vendor format
0343_20120910_021012_Healy.all.mb58.gz 8.18MB Kongsberg multibeam vendor format
0344_20120910_031015_Healy.all.mb58.gz 6.05MB Kongsberg multibeam vendor format
0345_20120910_033751_Healy.all.mb58.gz 26.46MB Kongsberg multibeam vendor format
0346_20120910_043750_Healy.all.mb58.gz 11.52MB Kongsberg multibeam vendor format
0347_20120910_051728_Healy.all.mb58.gz 16.50MB Kongsberg multibeam vendor format
0348_20120910_061726_Healy.all.mb58.gz 16.27MB Kongsberg multibeam vendor format
0349_20120910_071729_Healy.all.mb58.gz 15.71MB Kongsberg multibeam vendor format
0350_20120910_081729_Healy.all.mb58.gz 15.35MB Kongsberg multibeam vendor format
0351_20120910_091726_Healy.all.mb58.gz 15.28MB Kongsberg multibeam vendor format
0352_20120910_101732_Healy.all.mb58.gz 15.04MB Kongsberg multibeam vendor format
0353_20120910_111730_Healy.all.mb58.gz 15.96MB Kongsberg multibeam vendor format
0354_20120910_121734_Healy.all.mb58.gz 15.31MB Kongsberg multibeam vendor format
0355_20120910_131725_Healy.all.mb58.gz 14.79MB Kongsberg multibeam vendor format
0356_20120910_141726_Healy.all.mb58.gz 14.38MB Kongsberg multibeam vendor format
0357_20120910_151730_Healy.all.mb58.gz 14.28MB Kongsberg multibeam vendor format
0358_20120910_161733_Healy.all.mb58.gz 12.24MB Kongsberg multibeam vendor format
0359_20120910_171729_Healy.all.mb58.gz 7.50MB Kongsberg multibeam vendor format
0360_20120910_181728_Healy.all.mb58.gz 6.97MB Kongsberg multibeam vendor format
0361_20120910_191730_Healy.all.mb58.gz 7.18MB Kongsberg multibeam vendor format
0362_20120910_201730_Healy.all.mb58.gz 7.04MB Kongsberg multibeam vendor format
0363_20120910_211734_Healy.all.mb58.gz 7.30MB Kongsberg multibeam vendor format
0364_20120910_221733_Healy.all.mb58.gz 7.47MB Kongsberg multibeam vendor format
0365_20120910_231725_Healy.all.mb58.gz 7.63MB Kongsberg multibeam vendor format
0366_20120911_001733_Healy.all.mb58.gz 7.73MB Kongsberg multibeam vendor format
0367_20120911_011726_Healy.all.mb58.gz 7.73MB Kongsberg multibeam vendor format
0368_20120911_021727_Healy.all.mb58.gz 7.69MB Kongsberg multibeam vendor format
0369_20120911_031726_Healy.all.mb58.gz 7.68MB Kongsberg multibeam vendor format
0370_20120911_041731_Healy.all.mb58.gz 7.65MB Kongsberg multibeam vendor format
0371_20120911_051727_Healy.all.mb58.gz 7.67MB Kongsberg multibeam vendor format
0372_20120911_061725_Healy.all.mb58.gz 7.70MB Kongsberg multibeam vendor format
0373_20120911_071728_Healy.all.mb58.gz 7.76MB Kongsberg multibeam vendor format
0374_20120911_081730_Healy.all.mb58.gz 7.63MB Kongsberg multibeam vendor format
0375_20120911_091730_Healy.all.mb58.gz 7.70MB Kongsberg multibeam vendor format
0376_20120911_101735_Healy.all.mb58.gz 9.67MB Kongsberg multibeam vendor format
0377_20120911_111730_Healy.all.mb58.gz 16.31MB Kongsberg multibeam vendor format
0378_20120911_121731_Healy.all.mb58.gz 15.75MB Kongsberg multibeam vendor format
0379_20120911_131727_Healy.all.mb58.gz 15.40MB Kongsberg multibeam vendor format
0380_20120911_141730_Healy.all.mb58.gz 15.78MB Kongsberg multibeam vendor format
0381_20120911_151728_Healy.all.mb58.gz 15.90MB Kongsberg multibeam vendor format
0382_20120911_161732_Healy.all.mb58.gz 15.39MB Kongsberg multibeam vendor format
0383_20120911_171727_Healy.all.mb58.gz 15.93MB Kongsberg multibeam vendor format
0384_20120911_181725_Healy.all.mb58.gz 16.00MB Kongsberg multibeam vendor format
0385_20120911_191724_Healy.all.mb58.gz 2.09MB Kongsberg multibeam vendor format
0386_20120911_192510_Healy.all.mb58.gz 16.01MB Kongsberg multibeam vendor format
0387_20120911_202506_Healy.all.mb58.gz 17.15MB Kongsberg multibeam vendor format
0388_20120911_212507_Healy.all.mb58.gz 16.62MB Kongsberg multibeam vendor format
0389_20120911_222506_Healy.all.mb58.gz 15.82MB Kongsberg multibeam vendor format
0390_20120911_232505_Healy.all.mb58.gz 15.12MB Kongsberg multibeam vendor format
0391_20120912_002507_Healy.all.mb58.gz 15.47MB Kongsberg multibeam vendor format
0392_20120912_012506_Healy.all.mb58.gz 16.14MB Kongsberg multibeam vendor format
0393_20120912_022502_Healy.all.mb58.gz 16.36MB Kongsberg multibeam vendor format
0394_20120912_032506_Healy.all.mb58.gz 15.99MB Kongsberg multibeam vendor format
0395_20120912_042508_Healy.all.mb58.gz 15.68MB Kongsberg multibeam vendor format
0396_20120912_052501_Healy.all.mb58.gz 9.04MB Kongsberg multibeam vendor format
0397_20120912_062508_Healy.all.mb58.gz 8.50MB Kongsberg multibeam vendor format
0398_20120912_072509_Healy.all.mb58.gz 8.28MB Kongsberg multibeam vendor format
0399_20120912_082510_Healy.all.mb58.gz 8.74MB Kongsberg multibeam vendor format
0400_20120912_092504_Healy.all.mb58.gz 8.54MB Kongsberg multibeam vendor format
0401_20120912_102509_Healy.all.mb58.gz 7.91MB Kongsberg multibeam vendor format
0402_20120912_112505_Healy.all.mb58.gz 8.49MB Kongsberg multibeam vendor format
0403_20120912_122509_Healy.all.mb58.gz 6.80MB Kongsberg multibeam vendor format
0404_20120912_132508_Healy.all.mb58.gz 6.38MB Kongsberg multibeam vendor format
0405_20120912_142510_Healy.all.mb58.gz 7.35MB Kongsberg multibeam vendor format
0406_20120912_152508_Healy.all.mb58.gz 7.39MB Kongsberg multibeam vendor format
0407_20120912_162507_Healy.all.mb58.gz 7.36MB Kongsberg multibeam vendor format
0408_20120912_172504_Healy.all.mb58.gz 7.68MB Kongsberg multibeam vendor format
0409_20120912_182501_Healy.all.mb58.gz 7.96MB Kongsberg multibeam vendor format
0410_20120912_192503_Healy.all.mb58.gz 8.19MB Kongsberg multibeam vendor format
0411_20120912_202504_Healy.all.mb58.gz 7.97MB Kongsberg multibeam vendor format
0412_20120912_212503_Healy.all.mb58.gz 7.55MB Kongsberg multibeam vendor format
0413_20120912_222504_Healy.all.mb58.gz 8.73MB Kongsberg multibeam vendor format
0414_20120912_232508_Healy.all.mb58.gz 8.89MB Kongsberg multibeam vendor format
0415_20120913_002509_Healy.all.mb58.gz 8.94MB Kongsberg multibeam vendor format
0416_20120913_012507_Healy.all.mb58.gz 9.17MB Kongsberg multibeam vendor format
0417_20120913_022507_Healy.all.mb58.gz 9.34MB Kongsberg multibeam vendor format
0418_20120913_032506_Healy.all.mb58.gz 10.94MB Kongsberg multibeam vendor format
0419_20120913_042508_Healy.all.mb58.gz 14.78MB Kongsberg multibeam vendor format
0420_20120913_052505_Healy.all.mb58.gz 15.87MB Kongsberg multibeam vendor format
0421_20120913_062502_Healy.all.mb58.gz 10.46MB Kongsberg multibeam vendor format
0422_20120913_072502_Healy.all.mb58.gz 9.03MB Kongsberg multibeam vendor format
0423_20120913_082502_Healy.all.mb58.gz 8.53MB Kongsberg multibeam vendor format
0424_20120913_092502_Healy.all.mb58.gz 9.00MB Kongsberg multibeam vendor format
0425_20120913_102508_Healy.all.mb58.gz 13.42MB Kongsberg multibeam vendor format
0426_20120913_112507_Healy.all.mb58.gz 13.36MB Kongsberg multibeam vendor format
0427_20120913_122504_Healy.all.mb58.gz 13.43MB Kongsberg multibeam vendor format
0428_20120913_132501_Healy.all.mb58.gz 16.47MB Kongsberg multibeam vendor format
0429_20120913_142505_Healy.all.mb58.gz 7.01MB Kongsberg multibeam vendor format
0430_20120913_151226_Healy.all.mb58.gz 2.15MB Kongsberg multibeam vendor format
0431_20120913_152529_Healy.all.mb58.gz 3.61MB Kongsberg multibeam vendor format
0432_20120913_154836_Healy.all.mb58.gz 2.27MB Kongsberg multibeam vendor format
0433_20120913_160225_Healy.all.mb58.gz 6.73MB Kongsberg multibeam vendor format
0434_20120913_165535_Healy.all.mb58.gz 1.56MB Kongsberg multibeam vendor format
0435_20120913_170623_Healy.all.mb58.gz 2.05MB Kongsberg multibeam vendor format
0436_20120913_172030_Healy.all.mb58.gz 64.4KB Kongsberg multibeam vendor format
0437_20120913_172056_Healy.all.mb58.gz 5.93MB Kongsberg multibeam vendor format
0438_20120913_180110_Healy.all.mb58.gz 9.36MB Kongsberg multibeam vendor format
0439_20120913_190114_Healy.all.mb58.gz 9.27MB Kongsberg multibeam vendor format
0440_20120913_200116_Healy.all.mb58.gz 8.72MB Kongsberg multibeam vendor format
0441_20120913_210114_Healy.all.mb58.gz 8.20MB Kongsberg multibeam vendor format
0442_20120913_220115_Healy.all.mb58.gz 8.80MB Kongsberg multibeam vendor format
0443_20120913_230116_Healy.all.mb58.gz 9.35MB Kongsberg multibeam vendor format
0444_20120914_000113_Healy.all.mb58.gz 10.27MB Kongsberg multibeam vendor format
0445_20120914_010113_Healy.all.mb58.gz 15.70MB Kongsberg multibeam vendor format
0446_20120914_020118_Healy.all.mb58.gz 15.63MB Kongsberg multibeam vendor format
0447_20120914_030114_Healy.all.mb58.gz 15.48MB Kongsberg multibeam vendor format
0448_20120914_040111_Healy.all.mb58.gz 13.58MB Kongsberg multibeam vendor format
0449_20120914_050121_Healy.all.mb58.gz 13.46MB Kongsberg multibeam vendor format
0450_20120914_060111_Healy.all.mb58.gz 13.76MB Kongsberg multibeam vendor format
0451_20120914_070121_Healy.all.mb58.gz 14.38MB Kongsberg multibeam vendor format
0452_20120914_080112_Healy.all.mb58.gz 17.42MB Kongsberg multibeam vendor format
0453_20120914_090112_Healy.all.mb58.gz 17.68MB Kongsberg multibeam vendor format
0454_20120914_100115_Healy.all.mb58.gz 16.17MB Kongsberg multibeam vendor format
0455_20120914_110116_Healy.all.mb58.gz 16.04MB Kongsberg multibeam vendor format
0456_20120914_120118_Healy.all.mb58.gz 15.74MB Kongsberg multibeam vendor format
0457_20120914_130111_Healy.all.mb58.gz 16.19MB Kongsberg multibeam vendor format
0458_20120914_140113_Healy.all.mb58.gz 16.83MB Kongsberg multibeam vendor format
0459_20120914_150116_Healy.all.mb58.gz 16.44MB Kongsberg multibeam vendor format
0460_20120914_160115_Healy.all.mb58.gz 16.68MB Kongsberg multibeam vendor format
0461_20120914_170111_Healy.all.mb58.gz 16.59MB Kongsberg multibeam vendor format
0462_20120914_180114_Healy.all.mb58.gz 16.62MB Kongsberg multibeam vendor format
0463_20120914_190116_Healy.all.mb58.gz 16.52MB Kongsberg multibeam vendor format
0464_20120914_200111_Healy.all.mb58.gz 16.12MB Kongsberg multibeam vendor format
0465_20120914_210118_Healy.all.mb58.gz 16.08MB Kongsberg multibeam vendor format
0466_20120914_220115_Healy.all.mb58.gz 15.93MB Kongsberg multibeam vendor format
0467_20120914_230111_Healy.all.mb58.gz 16.77MB Kongsberg multibeam vendor format
0468_20120915_000111_Healy.all.mb58.gz 17.27MB Kongsberg multibeam vendor format
0469_20120915_010112_Healy.all.mb58.gz 17.02MB Kongsberg multibeam vendor format
0470_20120915_020109_Healy.all.mb58.gz 15.92MB Kongsberg multibeam vendor format
0471_20120915_030115_Healy.all.mb58.gz 15.73MB Kongsberg multibeam vendor format
0472_20120915_040111_Healy.all.mb58.gz 14.10MB Kongsberg multibeam vendor format
0473_20120915_050109_Healy.all.mb58.gz 9.74MB Kongsberg multibeam vendor format
0474_20120915_060110_Healy.all.mb58.gz 7.71MB Kongsberg multibeam vendor format
0475_20120915_070117_Healy.all.mb58.gz 7.70MB Kongsberg multibeam vendor format
0476_20120915_080112_Healy.all.mb58.gz 7.88MB Kongsberg multibeam vendor format
0477_20120915_090115_Healy.all.mb58.gz 7.90MB Kongsberg multibeam vendor format
0478_20120915_100117_Healy.all.mb58.gz 7.81MB Kongsberg multibeam vendor format
0479_20120915_110114_Healy.all.mb58.gz 7.45MB Kongsberg multibeam vendor format
0480_20120915_120114_Healy.all.mb58.gz 8.18MB Kongsberg multibeam vendor format
0481_20120915_130112_Healy.all.mb58.gz 8.80MB Kongsberg multibeam vendor format
0482_20120915_140114_Healy.all.mb58.gz 8.89MB Kongsberg multibeam vendor format
0483_20120915_150111_Healy.all.mb58.gz 8.74MB Kongsberg multibeam vendor format
0484_20120915_160112_Healy.all.mb58.gz 8.31MB Kongsberg multibeam vendor format
0485_20120915_170118_Healy.all.mb58.gz 8.76MB Kongsberg multibeam vendor format
0486_20120915_180109_Healy.all.mb58.gz 8.13MB Kongsberg multibeam vendor format
0487_20120915_190115_Healy.all.mb58.gz 8.75MB Kongsberg multibeam vendor format
0488_20120915_200109_Healy.all.mb58.gz 8.57MB Kongsberg multibeam vendor format
0489_20120915_210115_Healy.all.mb58.gz 8.70MB Kongsberg multibeam vendor format
0490_20120915_220110_Healy.all.mb58.gz 8.90MB Kongsberg multibeam vendor format
0491_20120915_230119_Healy.all.mb58.gz 8.76MB Kongsberg multibeam vendor format
0492_20120916_000115_Healy.all.mb58.gz 8.86MB Kongsberg multibeam vendor format
0493_20120916_010117_Healy.all.mb58.gz 8.24MB Kongsberg multibeam vendor format
0494_20120916_020118_Healy.all.mb58.gz 8.46MB Kongsberg multibeam vendor format
0495_20120916_030118_Healy.all.mb58.gz 8.41MB Kongsberg multibeam vendor format
0496_20120916_040114_Healy.all.mb58.gz 9.15MB Kongsberg multibeam vendor format
0497_20120916_050118_Healy.all.mb58.gz 9.06MB Kongsberg multibeam vendor format
0498_20120916_060114_Healy.all.mb58.gz 9.20MB Kongsberg multibeam vendor format
0499_20120916_070113_Healy.all.mb58.gz 10.95MB Kongsberg multibeam vendor format
0500_20120916_080115_Healy.all.mb58.gz 12.55MB Kongsberg multibeam vendor format
0501_20120916_090112_Healy.all.mb58.gz 9.44MB Kongsberg multibeam vendor format
0502_20120916_100116_Healy.all.mb58.gz 7.57MB Kongsberg multibeam vendor format
0503_20120916_110114_Healy.all.mb58.gz 7.32MB Kongsberg multibeam vendor format
0504_20120916_120109_Healy.all.mb58.gz 7.39MB Kongsberg multibeam vendor format
0505_20120916_130110_Healy.all.mb58.gz 14.94MB Kongsberg multibeam vendor format
0506_20120916_140116_Healy.all.mb58.gz 14.84MB Kongsberg multibeam vendor format
0507_20120916_150115_Healy.all.mb58.gz 10.13MB Kongsberg multibeam vendor format
0508_20120916_160109_Healy.all.mb58.gz 8.55MB Kongsberg multibeam vendor format
0509_20120916_170111_Healy.all.mb58.gz 8.34MB Kongsberg multibeam vendor format
0510_20120916_180110_Healy.all.mb58.gz 8.75MB Kongsberg multibeam vendor format
0511_20120916_190114_Healy.all.mb58.gz 8.28MB Kongsberg multibeam vendor format
0512_20120916_200112_Healy.all.mb58.gz 8.38MB Kongsberg multibeam vendor format
0513_20120916_210113_Healy.all.mb58.gz 0.66MB Kongsberg multibeam vendor format
0514_20120916_210546_Healy.all.mb58.gz 8.64MB Kongsberg multibeam vendor format
0515_20120916_220540_Healy.all.mb58.gz 8.50MB Kongsberg multibeam vendor format
0516_20120916_230543_Healy.all.mb58.gz 8.38MB Kongsberg multibeam vendor format
0517_20120917_000537_Healy.all.mb58.gz 8.42MB Kongsberg multibeam vendor format
0518_20120917_010540_Healy.all.mb58.gz 8.71MB Kongsberg multibeam vendor format
0519_20120917_020539_Healy.all.mb58.gz 8.55MB Kongsberg multibeam vendor format
0520_20120917_030540_Healy.all.mb58.gz 7.14MB Kongsberg multibeam vendor format
0521_20120917_040543_Healy.all.mb58.gz 8.37MB Kongsberg multibeam vendor format
0522_20120917_050542_Healy.all.mb58.gz 8.88MB Kongsberg multibeam vendor format
0523_20120917_060539_Healy.all.mb58.gz 9.28MB Kongsberg multibeam vendor format
0524_20120917_070538_Healy.all.mb58.gz 9.36MB Kongsberg multibeam vendor format
0525_20120917_080541_Healy.all.mb58.gz 9.19MB Kongsberg multibeam vendor format
0526_20120917_090538_Healy.all.mb58.gz 8.48MB Kongsberg multibeam vendor format
0527_20120917_100540_Healy.all.mb58.gz 8.74MB Kongsberg multibeam vendor format
0528_20120917_110545_Healy.all.mb58.gz 8.54MB Kongsberg multibeam vendor format
0529_20120917_120539_Healy.all.mb58.gz 8.14MB Kongsberg multibeam vendor format
0530_20120917_130542_Healy.all.mb58.gz 8.45MB Kongsberg multibeam vendor format
0531_20120917_140538_Healy.all.mb58.gz 6.44MB Kongsberg multibeam vendor format
0532_20120917_150543_Healy.all.mb58.gz 7.08MB Kongsberg multibeam vendor format
0533_20120917_160538_Healy.all.mb58.gz 7.01MB Kongsberg multibeam vendor format
0534_20120917_170538_Healy.all.mb58.gz 8.07MB Kongsberg multibeam vendor format
0535_20120917_180539_Healy.all.mb58.gz 8.39MB Kongsberg multibeam vendor format
0536_20120917_190541_Healy.all.mb58.gz 7.56MB Kongsberg multibeam vendor format
0537_20120917_200546_Healy.all.mb58.gz 7.96MB Kongsberg multibeam vendor format
0538_20120917_210539_Healy.all.mb58.gz 8.11MB Kongsberg multibeam vendor format
0539_20120917_220541_Healy.all.mb58.gz 8.38MB Kongsberg multibeam vendor format
0540_20120917_230547_Healy.all.mb58.gz 8.20MB Kongsberg multibeam vendor format
0541_20120918_000538_Healy.all.mb58.gz 8.49MB Kongsberg multibeam vendor format
0542_20120918_010545_Healy.all.mb58.gz 7.42MB Kongsberg multibeam vendor format
0543_20120918_020541_Healy.all.mb58.gz 7.92MB Kongsberg multibeam vendor format
0544_20120918_030546_Healy.all.mb58.gz 8.37MB Kongsberg multibeam vendor format
0545_20120918_040542_Healy.all.mb58.gz 8.41MB Kongsberg multibeam vendor format
0546_20120918_050539_Healy.all.mb58.gz 8.52MB Kongsberg multibeam vendor format
0547_20120918_060545_Healy.all.mb58.gz 8.41MB Kongsberg multibeam vendor format
0548_20120918_070541_Healy.all.mb58.gz 8.87MB Kongsberg multibeam vendor format
0549_20120918_080539_Healy.all.mb58.gz 8.84MB Kongsberg multibeam vendor format
0550_20120918_090541_Healy.all.mb58.gz 8.77MB Kongsberg multibeam vendor format
0551_20120918_100537_Healy.all.mb58.gz 7.61MB Kongsberg multibeam vendor format
0552_20120918_110540_Healy.all.mb58.gz 7.19MB Kongsberg multibeam vendor format
0553_20120918_120543_Healy.all.mb58.gz 6.18MB Kongsberg multibeam vendor format
0554_20120918_130536_Healy.all.mb58.gz 7.32MB Kongsberg multibeam vendor format
0555_20120918_140538_Healy.all.mb58.gz 5.32MB Kongsberg multibeam vendor format
0556_20120918_150543_Healy.all.mb58.gz 3.71MB Kongsberg multibeam vendor format
0557_20120918_160541_Healy.all.mb58.gz 6.23MB Kongsberg multibeam vendor format
0558_20120918_170545_Healy.all.mb58.gz 4.39MB Kongsberg multibeam vendor format
0559_20120918_180536_Healy.all.mb58.gz 5.46MB Kongsberg multibeam vendor format
0560_20120918_190540_Healy.all.mb58.gz 7.12MB Kongsberg multibeam vendor format
0561_20120918_200537_Healy.all.mb58.gz 6.75MB Kongsberg multibeam vendor format
0562_20120918_210544_Healy.all.mb58.gz 7.48MB Kongsberg multibeam vendor format
0563_20120918_220538_Healy.all.mb58.gz 7.36MB Kongsberg multibeam vendor format
0564_20120918_230538_Healy.all.mb58.gz 7.16MB Kongsberg multibeam vendor format
0565_20120919_000542_Healy.all.mb58.gz 7.63MB Kongsberg multibeam vendor format
0566_20120919_010539_Healy.all.mb58.gz 7.65MB Kongsberg multibeam vendor format
0567_20120919_020544_Healy.all.mb58.gz 6.32MB Kongsberg multibeam vendor format
0568_20120919_030541_Healy.all.mb58.gz 5.76MB Kongsberg multibeam vendor format
0569_20120919_040539_Healy.all.mb58.gz 4.94MB Kongsberg multibeam vendor format
0570_20120919_050536_Healy.all.mb58.gz 5.69MB Kongsberg multibeam vendor format
0571_20120919_060542_Healy.all.mb58.gz 6.55MB Kongsberg multibeam vendor format
0572_20120919_070542_Healy.all.mb58.gz 6.62MB Kongsberg multibeam vendor format
0573_20120919_080538_Healy.all.mb58.gz 6.30MB Kongsberg multibeam vendor format
0574_20120919_090539_Healy.all.mb58.gz 7.36MB Kongsberg multibeam vendor format
0575_20120919_100542_Healy.all.mb58.gz 7.06MB Kongsberg multibeam vendor format
0576_20120919_110540_Healy.all.mb58.gz 7.02MB Kongsberg multibeam vendor format
0577_20120919_120537_Healy.all.mb58.gz 5.78MB Kongsberg multibeam vendor format
0578_20120919_130541_Healy.all.mb58.gz 7.05MB Kongsberg multibeam vendor format
0579_20120919_140543_Healy.all.mb58.gz 7.14MB Kongsberg multibeam vendor format
0580_20120919_150544_Healy.all.mb58.gz 6.97MB Kongsberg multibeam vendor format
0581_20120919_160544_Healy.all.mb58.gz 6.56MB Kongsberg multibeam vendor format
0582_20120919_170538_Healy.all.mb58.gz 7.47MB Kongsberg multibeam vendor format
0583_20120919_180542_Healy.all.mb58.gz 7.52MB Kongsberg multibeam vendor format
0584_20120919_190535_Healy.all.mb58.gz 7.53MB Kongsberg multibeam vendor format
0585_20120919_200543_Healy.all.mb58.gz 7.41MB Kongsberg multibeam vendor format
0586_20120919_210535_Healy.all.mb58.gz 7.42MB Kongsberg multibeam vendor format
0587_20120919_220538_Healy.all.mb58.gz 6.86MB Kongsberg multibeam vendor format
0588_20120919_230536_Healy.all.mb58.gz 7.88MB Kongsberg multibeam vendor format
0589_20120920_000544_Healy.all.mb58.gz 7.56MB Kongsberg multibeam vendor format
0590_20120920_010540_Healy.all.mb58.gz 6.88MB Kongsberg multibeam vendor format
0591_20120920_020541_Healy.all.mb58.gz 6.11MB Kongsberg multibeam vendor format
0592_20120920_030537_Healy.all.mb58.gz 4.08MB Kongsberg multibeam vendor format
0593_20120920_034159_Healy.all.mb58.gz 6.76MB Kongsberg multibeam vendor format
0594_20120920_044207_Healy.all.mb58.gz 7.24MB Kongsberg multibeam vendor format
0595_20120920_054208_Healy.all.mb58.gz 7.00MB Kongsberg multibeam vendor format
0596_20120920_064202_Healy.all.mb58.gz 7.03MB Kongsberg multibeam vendor format
0597_20120920_074203_Healy.all.mb58.gz 7.38MB Kongsberg multibeam vendor format
0598_20120920_084200_Healy.all.mb58.gz 7.14MB Kongsberg multibeam vendor format
0599_20120920_094200_Healy.all.mb58.gz 6.97MB Kongsberg multibeam vendor format
0600_20120920_104205_Healy.all.mb58.gz 7.82MB Kongsberg multibeam vendor format
0601_20120920_114200_Healy.all.mb58.gz 7.69MB Kongsberg multibeam vendor format
0602_20120920_124206_Healy.all.mb58.gz 8.21MB Kongsberg multibeam vendor format
0603_20120920_134201_Healy.all.mb58.gz 8.41MB Kongsberg multibeam vendor format
0604_20120920_144159_Healy.all.mb58.gz 8.44MB Kongsberg multibeam vendor format
0605_20120920_154206_Healy.all.mb58.gz 8.24MB Kongsberg multibeam vendor format
0606_20120920_164204_Healy.all.mb58.gz 8.13MB Kongsberg multibeam vendor format
0607_20120920_174202_Healy.all.mb58.gz 7.83MB Kongsberg multibeam vendor format
0608_20120920_184206_Healy.all.mb58.gz 6.84MB Kongsberg multibeam vendor format
0609_20120920_194207_Healy.all.mb58.gz 7.92MB Kongsberg multibeam vendor format
0610_20120920_204204_Healy.all.mb58.gz 8.09MB Kongsberg multibeam vendor format
0611_20120920_214201_Healy.all.mb58.gz 8.19MB Kongsberg multibeam vendor format
0612_20120920_224159_Healy.all.mb58.gz 8.41MB Kongsberg multibeam vendor format
0613_20120920_234207_Healy.all.mb58.gz 8.07MB Kongsberg multibeam vendor format
0614_20120921_004203_Healy.all.mb58.gz 9.29MB Kongsberg multibeam vendor format
0615_20120921_014206_Healy.all.mb58.gz 9.59MB Kongsberg multibeam vendor format
0616_20120921_024200_Healy.all.mb58.gz 9.69MB Kongsberg multibeam vendor format
0617_20120921_034200_Healy.all.mb58.gz 10.08MB Kongsberg multibeam vendor format
0618_20120921_044159_Healy.all.mb58.gz 19.10MB Kongsberg multibeam vendor format
0619_20120921_054202_Healy.all.mb58.gz 34.21MB Kongsberg multibeam vendor format
0620_20120921_064202_Healy.all.mb58.gz 41.66MB Kongsberg multibeam vendor format
0621_20120921_074157_Healy.all.mb58.gz 30.45MB Kongsberg multibeam vendor format
0622_20120921_084203_Healy.all.mb58.gz 32.35MB Kongsberg multibeam vendor format
0623_20120921_094158_Healy.all.mb58.gz 40.71MB Kongsberg multibeam vendor format
0624_20120921_103757_Healy.all.mb58.gz 33.43MB Kongsberg multibeam vendor format
0625_20120921_112916_Healy.all.mb58.gz 26.15MB Kongsberg multibeam vendor format
0626_20120921_120239_Healy.all.mb58.gz 31.92MB Kongsberg multibeam vendor format
0627_20120921_130234_Healy.all.mb58.gz 33.50MB Kongsberg multibeam vendor format
0628_20120921_140238_Healy.all.mb58.gz 37.41MB Kongsberg multibeam vendor format
0629_20120921_150237_Healy.all.mb58.gz 48.81MB Kongsberg multibeam vendor format
0630_20120921_160238_Healy.all.mb58.gz 37.87MB Kongsberg multibeam vendor format
0631_20120921_170239_Healy.all.mb58.gz 31.81MB Kongsberg multibeam vendor format
0632_20120921_180241_Healy.all.mb58.gz 25.08MB Kongsberg multibeam vendor format
0633_20120921_190236_Healy.all.mb58.gz 30.14MB Kongsberg multibeam vendor format
0634_20120921_200237_Healy.all.mb58.gz 16.54MB Kongsberg multibeam vendor format
0635_20120921_210234_Healy.all.mb58.gz 28.73MB Kongsberg multibeam vendor format
0636_20120921_220238_Healy.all.mb58.gz 41.11MB Kongsberg multibeam vendor format
0637_20120921_230235_Healy.all.mb58.gz 32.93MB Kongsberg multibeam vendor format
0638_20120922_000237_Healy.all.mb58.gz 31.64MB Kongsberg multibeam vendor format
0639_20120922_010234_Healy.all.mb58.gz 32.85MB Kongsberg multibeam vendor format
0640_20120922_020235_Healy.all.mb58.gz 34.05MB Kongsberg multibeam vendor format
0641_20120922_030235_Healy.all.mb58.gz 41.14MB Kongsberg multibeam vendor format
0642_20120922_034542_Healy.all.mb58.gz 50.17MB Kongsberg multibeam vendor format
0643_20120922_044542_Healy.all.mb58.gz 44.88MB Kongsberg multibeam vendor format
0644_20120922_054541_Healy.all.mb58.gz 57.25MB Kongsberg multibeam vendor format
0645_20120922_064541_Healy.all.mb58.gz 50.20MB Kongsberg multibeam vendor format
0646_20120922_074544_Healy.all.mb58.gz 33.98MB Kongsberg multibeam vendor format
0647_20120922_084541_Healy.all.mb58.gz 51.80MB Kongsberg multibeam vendor format
0648_20120922_094542_Healy.all.mb58.gz 34.45MB Kongsberg multibeam vendor format
0649_20120922_104543_Healy.all.mb58.gz 43.82MB Kongsberg multibeam vendor format
0650_20120922_114541_Healy.all.mb58.gz 32.53MB Kongsberg multibeam vendor format
0651_20120922_124541_Healy.all.mb58.gz 36.20MB Kongsberg multibeam vendor format
0652_20120922_134542_Healy.all.mb58.gz 49.68MB Kongsberg multibeam vendor format
0653_20120922_144542_Healy.all.mb58.gz 24.45MB Kongsberg multibeam vendor format
0654_20120922_151940_Healy.all.mb58.gz 18.20MB Kongsberg multibeam vendor format
0655_20120922_160151_Healy.all.mb58.gz 15.12MB Kongsberg multibeam vendor format
0656_20120922_170150_Healy.all.mb58.gz 15.44MB Kongsberg multibeam vendor format
0657_20120922_180150_Healy.all.mb58.gz 15.45MB Kongsberg multibeam vendor format
0658_20120922_190146_Healy.all.mb58.gz 9.31MB Kongsberg multibeam vendor format
0659_20120922_200149_Healy.all.mb58.gz 7.88MB Kongsberg multibeam vendor format
0660_20120922_210151_Healy.all.mb58.gz 7.80MB Kongsberg multibeam vendor format
0661_20120922_220154_Healy.all.mb58.gz 13.34MB Kongsberg multibeam vendor format
0662_20120922_230149_Healy.all.mb58.gz 35.18MB Kongsberg multibeam vendor format
0663_20120923_000146_Healy.all.mb58.gz 36.32MB Kongsberg multibeam vendor format
0664_20120923_010145_Healy.all.mb58.gz 36.07MB Kongsberg multibeam vendor format
0665_20120923_020145_Healy.all.mb58.gz 37.76MB Kongsberg multibeam vendor format
0666_20120923_030148_Healy.all.mb58.gz 40.08MB Kongsberg multibeam vendor format
0667_20120923_040146_Healy.all.mb58.gz 42.44MB Kongsberg multibeam vendor format
0668_20120923_050145_Healy.all.mb58.gz 39.85MB Kongsberg multibeam vendor format
0669_20120923_060148_Healy.all.mb58.gz 32.36MB Kongsberg multibeam vendor format
0670_20120923_070146_Healy.all.mb58.gz 34.17MB Kongsberg multibeam vendor format
0671_20120923_080145_Healy.all.mb58.gz 32.60MB Kongsberg multibeam vendor format
0672_20120923_090147_Healy.all.mb58.gz 36.14MB Kongsberg multibeam vendor format
0673_20120923_100144_Healy.all.mb58.gz 50.18MB Kongsberg multibeam vendor format
0674_20120923_110146_Healy.all.mb58.gz 55.68MB Kongsberg multibeam vendor format
0675_20120923_120145_Healy.all.mb58.gz 77.90MB Kongsberg multibeam vendor format
0676_20120923_130145_Healy.all.mb58.gz 95.33MB Kongsberg multibeam vendor format
0677_20120923_140145_Healy.all.mb58.gz 120.37MB Kongsberg multibeam vendor format
0678_20120923_150144_Healy.all.mb58.gz 185.56MB Kongsberg multibeam vendor format
0679_20120923_160144_Healy.all.mb58.gz 199.35MB Kongsberg multibeam vendor format
0680_20120923_170144_Healy.all.mb58.gz 200.84MB Kongsberg multibeam vendor format
0681_20120923_180144_Healy.all.mb58.gz 202.33MB Kongsberg multibeam vendor format
0682_20120923_190144_Healy.all.mb58.gz 140.73MB Kongsberg multibeam vendor format
0683_20120923_200144_Healy.all.mb58.gz 123.27MB Kongsberg multibeam vendor format
0684_20120923_210144_Healy.all.mb58.gz 12.25MB Kongsberg multibeam vendor format
0685_20120923_210856_Healy.all.mb58.gz 122.91MB Kongsberg multibeam vendor format
0686_20120923_220856_Healy.all.mb58.gz 123.03MB Kongsberg multibeam vendor format
0687_20120923_230857_Healy.all.mb58.gz 123.14MB Kongsberg multibeam vendor format
0688_20120924_000856_Healy.all.mb58.gz 93.10MB Kongsberg multibeam vendor format
HLY1202-em122.20120827_0800.all.mb58.gz 15.82MB Kongsberg multibeam vendor format
HLY1202-em122.20120827_0900.all.mb58.gz 15.65MB Kongsberg multibeam vendor format
HLY1202-em122.20120827_1000.all.mb58.gz 15.84MB Kongsberg multibeam vendor format

Products: 2

Files File Size Description
HE1202.mos.ALL_UTM4N.xyb.gz 120.42MB ASCII backscatter data
HE1202_All_mos_UNCLOS_PS.sd.gz 30.04MB Fledermaus surface

Metadata Files: 3

Files File Size Description
HLY1202_Multibeam.xml NCEI created ISO metadata
Arctic_HE1202_Backscatter_ASCII_metadata.xml 15.0KB XML metadata file
v1_file_metadata.tar.gz 218.8KB File level metadata

Ancillary Files: 2

Files File Size Description
ctd.tar.gz 32.54MB Conductivity, Temperature, Depth (CTD) data
xbt.tar.gz 1.27MB Expendable Bathythermograph (XBT) data